Regional Weather Roundup
Issued by NWS

Home | Current Version | Previous Version | Text Only | Print | Product List | Glossary On
Versions: 1 2 3 4 5 6 7 8 9 10 11 12 13 14 15 16 17 18 19 20 21 22 23 24 25 26 27 28 29 30 31 32 33 34 35 36 37 38 39 40 41 42 43 44 45 46 47 48 49 50
000
ASUS43 KDTX 051901
RWRMI
MICHIGAN HOURLY REGIONAL WEATHER ROUNDUP
NATIONAL WEATHER SERVICE DETROIT/PONTIAC MI
300 PM EDT TUE MAY 05 2015

NOTE: "FAIR" INDICATES FEW OR NO CLOUDS BELOW 12,000 FEET WITH NO
SIGNIFICANT WEATHER AND/OR OBSTRUCTION TO VISIBILITY.

MIZ047>049-052>055-059>063-066>070-074>076-081>083-052000-
SOUTHEAST LOWER MICHIGAN

CITY           SKY/WX    TMP DP  RH WIND       PRES   REMARKS
ADRIAN         LGT RAIN  54  50  86 E8        30.28F
ALMA           LGT RAIN  52  47  82 CALM      30.32F
ANN ARBOR      LGT RAIN  53  48  83 E7        30.28F
BAD AXE        CLOUDY    54  44  69 NE8       30.32S
CARO           CLOUDY    56  44  64 CALM      30.31R
DETROIT CITY   LGT RAIN  53  43  68 NE6       30.31R
DETROIT        LGT RAIN  54  46  74 N7        30.30F
FLINT          LGT RAIN  52  47  83 NE7       30.32R
GROSSE ILE     RAIN      52  46  82 NE7       30.28F
HILLSDALE      LGT RAIN  53  53  97 NE6       30.27S
HOWELL         RAIN      49  47  93 NE3       30.30R

CITY           SKY/WX    TMP DP  RH WIND       PRES   REMARKS
JACKSON        LGT RAIN  50  46  86 NE9       30.29R
LAMBERTVILLE   LGT RAIN  55  50  82 NE7       30.28F
LANSING        RAIN      49  45  86 NE7       30.32R
LAPEER         LGT RAIN  50  46  83 S3        30.31S
MASON          RAIN      49  45  88 E7        30.30S
MONROE         RAIN      52  48  87 NE5       30.28S
MT. CLEMENS    LGT RAIN  54  50  85 NE6       30.27R FOG
PONTIAC        LGT RAIN  51  48  89 NE8       30.29S FOG
PORT HOPE        N/A     45  40  82 CALM      30.31F
PORT HURON     RAIN      50  48  93 NE7       30.30S
TRI CITIES     CLOUDY    58  43  57 VRB5      30.32S
MIDLAND        CLOUDY    59  39  47 CALM      30.31F
TROY           LGT RAIN  52  46  79 E6        30.31F
SAGINAW HB     DRIZZLE   55  41  58 CALM      30.31S
$$
MIZ043>046-050>051-056>058-064>065-071>073-077>080-052000-
SOUTHWEST LOWER MICHIGAN

CITY           SKY/WX    TMP DP  RH WIND       PRES   REMARKS
BATTLE CREEK   LGT RAIN  50  47  89 NE10      30.29S
BENTON HARBOR  CLOUDY    53  51  93 E8G17     30.24S
BIG RAPIDS     CLOUDY    61  27  28 E8G17     30.30F
COLDWATER      LGT RAIN  54  51  90 E9        30.26F
FREMONT        CLOUDY    54  45  72 E9        30.30F
HOLLAND        LGT RAIN  51  47  86 E10       30.29F
GRAND RAPIDS   RAIN      49  45  86 E14       30.30F FOG
IONIA          RAIN      49  45  85 E9G16     30.31R
KALAMAZOO      LGT RAIN  51  48  89 NE7       30.29R
LUDINGTON      CLOUDY    66  15  14 E7        30.29F
MARSHALL       CLOUDY    49  47  93 NE7       30.27F
MOUNT PLEASANT CLOUDY    57  40  54 SE3       30.30F
MUSKEGON       CLOUDY    55  46  71 E16       30.29F
SOUTH HAVEN    LGT RAIN  52  50  93 E9        30.26F
$$
MIZ016>042-052000-
NORTHERN LOWER MICHIGAN

CITY           SKY/WX    TMP DP  RH WIND       PRES   REMARKS
ALPENA         CLOUDY    65  42  43 NE7       30.31F
BEAVER ISLAND  SUNNY     66  22  18 NE7       30.32F
BELLAIRE       MOSUNNY   69  21  16 NE3       30.30S
CADILLAC       CLOUDY    64  17  16 E10       30.29F
CHARLEVOIX     SUNNY     55  36  48 N7        30.34F
FRANKFORT      MOSUNNY   70   9   9 E7        30.30S
GAYLORD        PTSUNNY   64  23  21 VRB5      30.31F
GRAYLING       CLOUDY    65  19  17 CALM      30.31S
HARBOR SPRINGS MOSUNNY   67  23  19 E10G16    30.31F
MANISTEE       PTSUNNY   64  21  19 E8        30.30S
OSCODA         CLOUDY    53  45  74 NE9       30.31F
PELLSTON       SUNNY     68  20  16 NE7G18    30.32F
ROGERS CITY    MOSUNNY   55  40  56 NE5       30.33F
TRAVERSE CITY  PTSUNNY   64  35  34 VRB3      30.30F
$$
MIZ007>008-015-052000-
EASTERN UPPER MICHIGAN

CITY           SKY/WX    TMP DP  RH WIND       PRES   REMARKS
KINROSS        SUNNY     64  27  24 NW12      30.31F
MACKINAC ISLAN SUNNY     63  23  22 S7        30.32S
NEWBERRY       SUNNY     68  28  22 E8        30.30F
S. S. MARIE    SUNNY     67  28  23 NW9       30.31S
MUNISING         N/A     50  31  48 NW8       30.31S
$$
MIZ004>006-011>014-085-052000-
CENTRAL UPPER MICHIGAN

CITY           SKY/WX    TMP DP  RH WIND       PRES   REMARKS
MANISTIQUE     SUNNY     61  32  33 S7        30.32F
ESCANABA       SUNNY     57  30  35 SE10      30.32F
MENOMINEE      SUNNY     61  34  36 SE7       30.32F
SAWYER-GWINN   SUNNY     68  28  22 S10       30.29F
$$
MIZ001>003-009>011-084-052000-
WESTERN UPPER MICHIGAN

CITY           SKY/WX    TMP DP  RH WIND       PRES   REMARKS
IRON MOUNTAIN  SUNNY     68  30  24 SE10G18   30.27F
HOUGHTON       SUNNY     69  23  17 E10G16    30.27F
COPPER HARBOR    N/A     49  35  58 VRB3      30.29F
IRONWOOD       SUNNY     70  27  19 SE5G17    30.21F
$$

ABBREVIATIONS USED IN REMARKS
   TC - TEMPERATURE IN CELSIUS
  WCI - WIND CHILL INDEX
   HX - HEAT INDEX
  VSB - VISIBILITY



USA.gov is the U.S. government's official web portal to all federal, state and local government web resources and services.